Weather Roundup
Issued by NWS

Home | Current Version | Previous Version | Graphics & Text | Print | Product List | Glossary Off
Versions: 1 2 3 4 5 6 7 8 9 10 11 12 13 14 15 16 17 18 19 20 21 22 23 24 25 26 27 28 29 30 31 32 33 34 35 36 37 38 39 40 41 42 43 44 45 46 47 48 49 50

000
NZUS93 KARX 041710
HRRWXR

CURRENT HOURLY OBSERVATIONS ACROSS
MUCH OF THE UPPER MISSISSIPPI VALLEY
NATIONAL WEATHER SERVICE LA CROSSE WI
1200 PM CDT SAT JUL 04 2015


...SOUTHEAST MINNESOTA...


CITY           SKY/WX    TMP DP  RH WIND       PRES   REMARKS
ROCHESTER      MOSUNNY   78  64  61 VRB6      29.99S
ROCHESTER/MAYO FAIR      77  62  59 S3        29.98S
WINONA         SUNNY     77  61  57 CALM      29.97S
AUSTIN         SUNNY     79  64  61 SW5       29.98F
ALBERT LEA     SUNNY     77  64  65 W3        29.98S
DODGE CENTER   SUNNY     77  64  65 S6        29.98S
PRESTON        SUNNY     76  62  62 S5        30.00S
OWATONNA       SUNNY     79  64  61 S6        29.97S
FARIBAULT      SUNNY     79  66  65 S7        29.97S
$$

...ELSEWHERE IN MINNESOTA...


CITY           SKY/WX    TMP DP  RH WIND       PRES   REMARKS
MINNEAPOLIS    PTSUNNY   80  64  58 S6        29.94S HAZE
INTNL FALLS    MOSUNNY   76  58  53 VRB7      29.92F
DULUTH         MOSUNNY   73  59  61 SE8       29.97S
RED WING       SUNNY     79  64  61 SE5       29.95R
REDWOOD FALLS  PTSUNNY   80  66  62 SW7       29.93F
MANKATO        MOSUNNY   77  64  65 CALM      29.96S
WORTHINGTON    SUNNY     75  63  64 SW12      29.98S
FAIRMONT       SUNNY     77  61  57 S8        29.97S
$$

...SOUTHWEST WISCONSIN...


CITY           SKY/WX    TMP DP  RH WIND       PRES   REMARKS
LA CROSSE      SUNNY     79  61  53 S6        29.97S
PRAIRIE DU CHI SUNNY     77  57  49 SE3       29.99S
BOSCOBEL       SUNNY     80  55  42 VRB5      29.99S
LONE ROCK      SUNNY     78  57  48 S6        30.00S
PLATTEVILLE    SUNNY     77  57  50 SW7       30.01S
FORT MC COY    SUNNY     79  56  44 W5        29.98S
CAMP DOUGLAS   MOSUNNY   78  65  63 VRB6      29.97F
VIROQUA        FAIR      77  58  52 SW3       30.00S
WIS DELLS      SUNNY     77  55  46 CALM      29.99S
$$

...ELSEWHERE IN WISCONSIN...


CITY           SKY/WX    TMP DP  RH WIND       PRES   REMARKS
MILWAUKEE      MOSUNNY   79  58  48 VRB3      29.99S
MADISON        SUNNY     77  59  53 SW6       29.99S
GREEN BAY      SUNNY     77  62  59 CALM      29.97S
EAU CLAIRE     SUNNY     78  63  59 W3        29.95F
BLACK RVR FLS  FAIR      79  61  52 CALM      29.96F
MEDFORD        MOSUNNY   75  61  62 CALM      29.99S
WAUSAU         MOSUNNY   78  61  55 SW6       29.96S
WIS RAPIDS     SUNNY     77  60  55 S5        29.99S
MARSHFIELD     SUNNY     76  61  59 CALM      29.98S
RICE LAKE      SUNNY     78  61  55 CALM      29.98S
$$

...NORTHEAST IOWA...


CITY           SKY/WX    TMP DP  RH WIND       PRES   REMARKS
DECORAH          N/A    N/A N/A N/A MISG        N/A
MASON CITY     SUNNY     77  62  59 VRB7      30.01S
CHARLES CITY   SUNNY     75  66  73 VRB6      30.01S
OELWEIN        SUNNY     75  63  64 W5        30.01F
$$

...ELSEWHERE IN IOWA...


CITY           SKY/WX    TMP DP  RH WIND       PRES   REMARKS
DES MOINES     MOSUNNY   78  58  49 VRB5      30.01S
IOWA CITY      SUNNY     77  60  55 S6        30.03S
FORT DODGE     SUNNY     77  59  53 S10       30.01S
$$

...NORTHERN ILLINOIS...


CITY           SKY/WX    TMP DP  RH WIND       PRES   REMARKS
CHICAGO-OHARE  SUNNY     76  54  46 S6        30.01R
CHICAGO-MIDWAY MOSUNNY   80  56  43 CALM      30.01R
MOLINE         SUNNY     78  58  49 VRB3      30.02S
ROCKFORD       MOSUNNY   78  60  53 CALM      30.03R
PEORIA         MOSUNNY   79  60  52 SW5       30.03F
$$

NOTE: "FAIR" INDICATES FEW OR NO CLOUDS BELOW 12,000 FEET WITH NO
SIGNIFICANT WEATHER AND/OR OBSTRUCTIONS TO VISIBILITY. WIND
SPEEDS ARE IN MILES-PER-HOUR.



USA.gov is the U.S. government's official web portal to all federal, state and local government web resources and services.